User: anonymous   Login
Location: Unspecified
(0.0000°N, 0.0000°E)
Time: 02:54:16
(UTC+00:00)
Language:

ACS3 Solar Sail - Orbit

View from above orbital plane
View from above orbital plane
View from above satellite
View from above satellite

Ground track
Ground track

The orbit data is extracted from the following two-line orbital elements,

1 59588U 24077B   24206.63034389  .00000082  00000-0  13021-3 0  9995
2 59588  97.4042 266.1111 0019919 356.2904   3.8096 13.67693403 12527
Epoch (UTC): 24 July 2024 15:07:41
Eccentricity: 0.0019919
inclination: 97.4042°
perigee height: 993 km
apogee height: 1022 km
right ascension of ascending node: 266.1111°
argument of perigee: 356.2904°
revolutions per day: 13.67693403
mean anomaly at epoch: 3.8096°
orbit number at epoch: 1252

The dashed part of the orbit path shows where the satellite is in the earth's shadow,  

DLR